Location: Acts Church of Fort Worth
(32.6786°N, 97.2668°W)
Time: 09:23:19
(UTC+00:00)

Cosmos 1821 Rocket - Visible Passes

Search period start: 10 April 2026 00:00
Search period end: 20 April 2026 00:00
Orbit: 945 x 1002 km, 82.9° (Epoch: 10 April)

Date Brightness Start Highest point End Pass type
(mag) Time Alt. Az. Time Alt. Az. Time Alt. Az.
10 Apr 5.8 02:32:45 14° ENE 02:32:45 14° ENE 02:34:16 10° NE visible
10 Apr 5.2 04:17:19 37° NNW 04:17:19 37° NNW 04:21:14 10° N visible
11 Apr 5.0 02:56:44 28° NE 02:56:44 28° NE 03:00:25 10° NNE visible
11 Apr 5.7 04:41:18 27° WNW 04:41:18 27° WNW 04:45:28 10° NNW visible
12 Apr 4.2 03:20:39 56° NE 03:20:39 56° NE 03:25:45 10° NNE visible
12 Apr 6.4 05:05:13 15° WNW 05:05:23 15° WNW 05:08:41 10° NW visible
13 Apr 5.6 01:59:55 14° E 01:59:55 14° E 02:02:47 10° NE visible
13 Apr 4.2 03:44:28 66° WNW 03:44:28 66° WNW 03:50:36 10° N visible
14 Apr 4.8 02:23:37 27° E 02:24:15 28° E 02:29:24 10° NNE visible
14 Apr 5.3 04:08:10 32° W 04:09:20 35° WNW 04:15:00 10° NNW visible
15 Apr 4.1 02:47:10 42° SE 02:48:51 53° E 02:54:56 10° NNE visible
15 Apr 6.2 04:31:42 14° WSW 04:34:30 18° WNW 04:38:41 10° NNW visible
16 Apr 5.7 01:27:51 10° E 01:29:13 11° E 01:30:35 10° ENE visible
16 Apr 4.0 03:10:32 32° SSW 03:13:36 81° W 03:19:56 10° N visible
17 Apr 5.1 01:49:05 10° SE 01:53:37 23° E 01:58:19 10° NE visible
17 Apr 5.0 03:33:35 14° SSW 03:38:32 42° W 03:44:29 10° N visible
18 Apr 4.3 02:12:22 10° SSE 02:18:10 43° E 02:24:04 10° NNE visible
18 Apr 6.0 03:58:54 10° SW 04:03:38 23° WNW 04:08:27 10° NNW visible
19 Apr 3.9 02:36:41 10° S 02:42:52 83° E 02:49:13 10° N visible
19 Apr 6.7 04:27:11 10° W 04:28:56 11° WNW 04:30:42 10° NW visible
